SKYSAT-C18 (46180 NORAD) Tracking and Keplerian Element Data

This shows tracking and keplerian element data for the satellite.

Feedback or suggestion? Click here.




ElementValue
Catalog46180
NameSKYSAT-C18
Epoch Orbit552
Epoch Day268.68260345
Epoch Year2020
RAAN253.7264
Inclination52.9977
Eccentricity0.0029382
Argument of Perigee171.0181
Mean Anonmoly189.1371
Mean Motion15.8064924
Decay Rate0.00024249
L11 46180U 20057BR 20268.68260345 .00024249 00000-0 12371-3 0 9993
L22 46180 52.9977 253.7264 0029382 171.0181 189.1371 15.80649240 5523

Live tracking and technical data element details for SKYSAT-C18 (NORAD 46180). SKYSAT-C18 can be tracked NOW for your location showing map with azimuth and elevation plus other details from your city location.

Track the satellite on the map from your city or location and see movement details for azimuth, elevation, latitude, longitude, range, height, and movement on the map or in text.







IsCatalogInMostPopularTable: catalog: 46180, numindb: 4
Update: records affected: 1



GetName: 46180 SKYSAT-C18

Hit Count: updated at: Mon, 28 Sep 2020 16:10:09 GMT